This is the latest recevied weather packets stored in our database for station/object E70ARA-3. If no packets are shown the sender has not sent any weather packets the latest 10 day(s).
| Time | Temp. | Humidity | Pressure | Rain* | Wind** | Luminosity | Snow |
|---|---|---|---|---|---|---|---|
| 1777232560 | 16.67° C | 43% | 1031.8 hPa | - | - | - | - |
| 1777231660 | 16.67° C | 41% | 1031.6 hPa | - | - | - | - |
| 1777230760 | 17.22° C | 40% | 1031.2 hPa | - | - | - | - |
| 1777229860 | 17.78° C | 38% | 1030.9 hPa | - | - | - | - |
| 1777228959 | 18.89° C | 33% | 1030.6 hPa | - | - | - | - |
| 1777228059 | 18.89° C | 31% | 1030.3 hPa | - | - | - | - |
| 1777227159 | 19.44° C | 33% | 1030 hPa | - | - | - | - |
| 1777226259 | 20.56° C | 31% | 1029.7 hPa | - | - | - | - |
| 1777225358 | 20.56° C | 30% | 1029.3 hPa | - | - | - | - |
| 1777224458 | 21.11° C | 29% | 1028.9 hPa | - | - | - | - |
| 1777223558 | 22.22° C | 29% | 1028.8 hPa | - | - | - | - |
| 1777222658 | 22.22° C | 28% | 1028.6 hPa | - | - | - | - |
| 1777221758 | 22.78° C | 28% | 1028.5 hPa | - | - | - | - |
| 1777220858 | 23.33° C | 27% | 1028.3 hPa | - | - | - | - |
| 1777219957 | 23.89° C | 25% | 1028.2 hPa | - | - | - | - |
| 1777219057 | 24.44° C | 24% | 1028.1 hPa | - | - | - | - |
| 1777218157 | 24.44° C | 23% | 1028.1 hPa | - | - | - | - |
| 1777217257 | 25° C | 22% | 1027.9 hPa | - | - | - | - |
| 1777216357 | 25.56° C | 20% | 1027.8 hPa | - | - | - | - |
| 1777215456 | 25.56° C | 20% | 1027.9 hPa | - | - | - | - |
| 1777214555 | 25.56° C | 19% | 1027.8 hPa | - | - | - | - |
| 1777213655 | 25.56° C | 20% | 1027.7 hPa | - | - | - | - |
| 1777212755 | 26.11° C | 20% | 1027.6 hPa | - | - | - | - |
| 1777211855 | 26.11° C | 20% | 1027.6 hPa | - | - | - | - |
| 1777210959 | 26.11° C | 20% | 1027.7 hPa | - | - | - | - |
* Rain since midnight (hover to see other rain measurements)
** Current wind speed in m/s (hover to see current wind gust speed)